THOR ABLESTAR DEB, 131

Orbit data source: Space-Track

THOR ABLESTAR DEB, 131 is space debris in LEO originally from a launch on Thu, 29 Jun 1961 UTC launched from the Air Force Eastern Test Range (AFETR). Debris objects in space refer to the collection of defunct objects orbiting the Earth. Examples of debris include non-operational satellites, rocket bodies, and fragments generated from explosions, collisions, or faulty payload assembly.

Loading next visibility...
Identifier
131, 1961-015R
Orbit
LEO
Country
Flag of USUS
Related business
Manufacturer
Unknown
Mission
Spacecraft
Bus & Motor
Unknown
Mass
Unknown
Launch date (UTC)
1961-06-29 (65 years ago)
Launch vehicle
Unknown
Launch site
Air Force Eastern Test Range (AFETR)
Object type
Payload
Rocket body
Debris
Shape & HBR
Unknown shape, 0.2 m
Radar Cross Section
Medium (>0.1 m² and <1 m²)

Expand to show TLE details & history
Last TLE update: 1 day ago

TLE from 1 day ago
0 THOR ABLESTAR DEB
1 00131U 61015R   26173.16970808  .00000091  00000-0  10935-3 0  9997
2 00131  66.7352  91.1304 0073505  63.4483 297.4111 14.01789659304161
Epoch: 2026-06-22T04:04Z
TLE epoch observation values (Epoch: 2026-06-22T04:04:22.778Z)
Latitude
-0.00002°
Longitude
119.67601°
Altitude
865.408 km
Speed
7.433 km/s
True Right ascension
06h 04m 31s
True Declination
0° 00' 00"
Sunlit
Object was in daylight at epoch
Visualization orbit readout
Latitude
Unknown
Longitude
Unknown
Altitude
Unknown
Speed
Unknown
Apparent Right ascension
Unknown
Apparent Declination
Unknown
Sunlit
N/A
Visualization observer readout
Local Sidereal Time
23:05:39
Azimuth
Unknown
Elevation
Unknown
Doppler factor
Unknown
Orbital elements
Apogee altitude
939.392 km
Perigee altitude
832.602 km
Semi-major axis
7,264.134 km
Eccentricity
0.00735
Inclination
66.7352°
RAAN
91.1304°
Arg. of periapsis
63.4483°
True anomaly
296.66021°
Mean anomaly
297.4111°
Eccentric anomaly
297.03597°
Mean motion
3.50564 °/min
Orbital period
102.69 mins
BSTAR
0.00010935
Loading maneuver chart data...
Computing Atmospheric mass density...

Documentation

Showing up to 5 results
|